Weather History for KTZR - March, 2013

Change the Weather History Date:

Sunday, March 17, 2013

  Actual Average Record
Temperature  
Mean Temperature 34 °F -  
Max Temperature 37 °F 48 °F 73 °F (2003)
Min Temperature 31 °F 31 °F 19 °F (2014)
Degree Days  
Heating Degree Days 31    
Moisture  
Dew Point 27 °F    
Average Humidity 79    
Maximum Humidity 91    
Minimum Humidity 60    
Precipitation  
Precipitation 0.00 in - - ()
Sea Level Pressure  
Sea Level Pressure 30.08 in    
Wind  
Wind Speed 8 mph (NNE)    
Max Wind Speed 13 mph    
Max Gust Speed 20 mph    
Visibility 10 miles    
Events      
Averages and records for this station are not official NWS values.
T = Trace of Precipitation, MM = Missing Value Source: NWS Daily Summary

Daily Weather History Graph

Daily Weather History Graph

Search for Another Location

Airport or City:

Trip Planner

Search our weather history database for the weather conditions in past years. The results will help you decide how hot, cold, wet, or windy it might be!

Date:

Astronomy

Mar. 17, 2013 Rise Set
Actual Time 7:40 AM EDT 7:41 PM EDT
Civil Twilight 7:13 AM EDT 8:08 PM EDT
Nautical Twilight 6:42 AM EDT 8:40 PM EDT
Astronomical Twilight 6:10 AM EDT 9:12 PM EDT
Moon 10:52 AM EDT (3/17) 12:48 AM EDT (3/17)
Length of Visible Light 12h 55m
Length of Day
12h 01m
Waxing Crescent, 31% of the Moon is Illuminated
Mar 17
Waxing Crescent
Mar 19
First Quarter
Mar 27
Full
Apr 3
Last Quarter
Apr 10
New

Hourly Weather History & Observations

Time (EDT) Temp. Windchill Dew Point Humidity Pressure Visibility Wind Dir Wind Speed Gust Speed Precip Events Conditions
12:15 AM 32.0 °F 24.8 °F 29.5 °F 90% 30.03 in 10.0 mi North 8.1 mph - N/A   Overcast
12:35 AM 32.0 °F 24.8 °F 29.7 °F 91% 30.03 in 10.0 mi North 8.1 mph - N/A   Overcast
12:55 AM 32.0 °F 25.6 °F 29.7 °F 91% 30.04 in 10.0 mi North 6.9 mph - N/A   Overcast
1:15 AM 32.0 °F 25.6 °F 29.7 °F 91% 30.03 in 10.0 mi North 6.9 mph - N/A   Overcast
1:35 AM 32.0 °F 25.6 °F 29.5 °F 90% 30.02 in 10.0 mi North 6.9 mph - N/A   Overcast
1:55 AM 31.8 °F 26.2 °F 29.3 °F 90% 30.04 in 10.0 mi North 5.8 mph - N/A   Overcast
2:15 AM 31.8 °F 27.3 °F 29.3 °F 90% 30.04 in 10.0 mi North 4.6 mph - N/A   Overcast
2:35 AM 32.0 °F 26.4 °F 29.1 °F 89% 30.04 in 10.0 mi NNE 5.8 mph - N/A   Overcast
2:55 AM 32.0 °F 25.6 °F 29.3 °F 90% 30.04 in 10.0 mi NNW 6.9 mph - N/A   Overcast
3:15 AM 32.0 °F 24.8 °F 29.1 °F 89% 30.04 in 10.0 mi NNW 8.1 mph - N/A   Overcast
3:35 AM 32.0 °F 24.8 °F 28.8 °F 88% 30.05 in 10.0 mi NNW 8.1 mph - N/A   Overcast
3:55 AM 31.8 °F 23.9 °F 28.4 °F 87% 30.05 in 10.0 mi NNW 9.2 mph - N/A   Overcast
4:15 AM 32.0 °F 23.6 °F 28.0 °F 85% 30.04 in 10.0 mi North 10.4 mph - N/A   Overcast
4:35 AM 32.0 °F 25.6 °F 27.9 °F 85% 30.04 in 10.0 mi North 6.9 mph - N/A   Overcast
4:55 AM 32.0 °F 23.0 °F 27.7 °F 84% 30.03 in 10.0 mi North 11.5 mph - N/A   Overcast
5:15 AM 32.0 °F 24.2 °F 27.7 °F 84% 30.05 in 10.0 mi North 9.2 mph - N/A   Overcast
5:35 AM 32.0 °F 24.8 °F 27.7 °F 84% 30.05 in 10.0 mi North 8.1 mph - N/A   Overcast
5:55 AM 32.0 °F 24.2 °F 27.5 °F 83% 30.06 in 10.0 mi North 9.2 mph - N/A   Overcast
6:35 AM 32.0 °F 25.6 °F 27.7 °F 84% 30.07 in 10.0 mi North 6.9 mph - N/A   Overcast
6:55 AM 32.0 °F 27.5 °F 27.5 °F 83% 30.10 in 10.0 mi North 4.6 mph - N/A   Overcast
7:15 AM 32.0 °F 25.6 °F 27.5 °F 83% 30.11 in 10.0 mi NNE 6.9 mph - N/A   Overcast
7:20 AM 32.0 °F 24.8 °F 28.4 °F 87% 30.11 in - NE 8.1 mph - N/A   Overcast
7:35 AM 32.0 °F 25.6 °F 28.0 °F 85% 30.12 in 10.0 mi NNE 6.9 mph - N/A   Overcast
7:47 AM 32.0 °F 24.8 °F 28.4 °F 87% 30.12 in 10.0 mi NNE 8.1 mph - N/A   Overcast
7:55 AM 32.0 °F 24.2 °F 27.5 °F 83% 30.13 in 10.0 mi North 9.2 mph - N/A   Overcast
8:15 AM 32.0 °F 23.6 °F 27.1 °F 82% 30.14 in 10.0 mi North 10.4 mph - N/A   Overcast
8:47 AM 32.0 °F 23.6 °F 26.6 °F 80% 30.15 in 10.0 mi North 10.4 mph - N/A   Overcast
9:47 AM 32.0 °F 25.6 °F 24.8 °F 75% 30.17 in 10.0 mi North 6.9 mph - N/A   Overcast
10:47 AM 33.8 °F 25.8 °F 24.8 °F 70% 30.16 in 10.0 mi NNE 10.4 mph - N/A   Overcast
11:50 AM 33.8 °F 25.8 °F 23.0 °F 65% 30.16 in 10.0 mi NE 10.4 mph - N/A   Overcast
1:07 PM 35.6 °F 28.0 °F 24.8 °F 65% 30.16 in 10.0 mi NE 10.4 mph - N/A   Overcast
1:50 PM 35.6 °F 28.6 °F 26.6 °F 70% 30.15 in 10.0 mi NE 9.2 mph - N/A   Overcast
2:50 PM 35.6 °F 29.2 °F 26.6 °F 70% 30.13 in 10.0 mi NE 8.1 mph - N/A   Mostly Cloudy
3:50 PM 37.4 °F 32.8 °F 24.8 °F 60% 30.12 in 10.0 mi ENE 5.8 mph - N/A   Scattered Clouds
4:58 PM 37.4 °F 32.8 °F 24.8 °F 60% 30.11 in 10.0 mi NE 5.8 mph - N/A   Clear
5:50 PM 37.4 °F 29.8 °F 24.8 °F 60% 30.11 in 10.0 mi NE 11.5 mph - N/A   Clear
6:50 PM 37.4 °F 30.8 °F 24.8 °F 60% 30.10 in 10.0 mi ENE 9.2 mph - N/A   Clear
9:15 PM 35.6 °F 28.6 °F 25.7 °F 67% 30.10 in 10.0 mi ENE 9.2 mph - N/A   Overcast
9:35 PM 35.6 °F 28.6 °F 25.7 °F 67% 30.10 in 10.0 mi ENE 9.2 mph - N/A   Overcast
9:55 PM 35.4 °F 27.8 °F 25.7 °F 68% 30.09 in 10.0 mi ENE 10.4 mph - N/A   Overcast
10:15 PM 35.1 °F 27.4 °F 25.7 °F 69% 30.09 in 10.0 mi ENE 10.4 mph 16.1 mph N/A   Overcast
10:35 PM 34.9 °F 26.6 °F 25.7 °F 69% 30.09 in 10.0 mi ENE 11.5 mph 16.1 mph N/A   Overcast
10:55 PM 34.7 °F 25.9 °F 25.7 °F 70% 30.08 in 10.0 mi ENE 12.7 mph 17.3 mph N/A   Overcast
11:15 PM 34.3 °F 25.9 °F 25.5 °F 70% 30.07 in 10.0 mi ENE 11.5 mph 16.1 mph N/A   Overcast
11:35 PM 34.2 °F 26.8 °F 25.5 °F 71% 30.06 in 10.0 mi ENE 9.2 mph 19.6 mph N/A   Overcast
11:55 PM 34.0 °F 25.5 °F 25.7 °F 72% 30.06 in 10.0 mi East 11.5 mph 19.6 mph N/A   Overcast